Location: Davayat
(45.9471°N, 3.1105°E)
Time: 17:25:44
(UTC+00:00)

SL-24 R/B - Pass Details

Date: 01 December 2020
Orbit: 504 x 1003 km, 97.4° (Epoch: 17 January)

Event Time Altitude Azimuth Distance (km) Brightness Sun altitude
Exits shadow 17:49:37 39° 51° (NE) 794 4.2 -17.7°
Maximum altitude 17:50:36 52° 99° (E) 651 3.8 -17.9°
Drops below altitude 10° 17:54:09 10° 177° (S) 1,713 6.4 -18.5°
Sets 17:56:14 0° 182° (S) 2,594 7.5 -18.8°
